Weather History for KPSO - January, 2014

Change the Weather History Date:

Friday, January 31, 2014

  Actual Average (KDRO) Record (KDRO)
Temperature  
Mean Temperature 34 °F 25 °F  
Max Temperature 39 °F 39 °F 60 °F (1971)
Min Temperature 28 °F 11 °F -17 °F (2008)
Degree Days  
Heating Degree Days 32 40  
Month to date heating degree days 1284  
Since 1 July heating degree days 4154  
Cooling Degree Days 0 0  
Month to date cooling degree days 0  
Year to date cooling degree days 0  
Moisture  
Dew Point 29 °F    
Average Humidity 82    
Maximum Humidity 99    
Minimum Humidity 52    
Precipitation  
Precipitation 0.00 in 0.04 in 0.22 in (1978)
Month to date precipitation 1.12  
Year to date precipitation 1.12  
Sea Level Pressure  
Sea Level Pressure 29.71 in    
Wind  
Wind Speed 11 mph (SW)    
Max Wind Speed 26 mph    
Max Gust Speed 39 mph    
Visibility 7 miles    
Events Snow , Thunderstorm    
T = Trace of Precipitation, MM = Missing Value Source: NWS Daily Summary

Daily Weather History Graph

Daily Weather History Graph

Search for Another Location

Airport or City:

Trip Planner

Search our weather history database for the weather conditions in past years. The results will help you decide how hot, cold, wet, or windy it might be!

Date:

Astronomy

Jan. 31, 2014 Rise Set
Actual Time 7:12 AM MST 5:31 PM MST
Civil Twilight 6:44 AM MST 5:59 PM MST
Nautical Twilight 6:13 AM MST 6:30 PM MST
Astronomical Twilight 5:42 AM MST 7:01 PM MST
Moon 7:26 AM MST (1/31) 6:56 PM MST (1/31)
Length of Visible Light 11h 14m
Length of Day
10h 19m
New Moon, 1% of the Moon is Illuminated
Jan 31
New Moon
Feb 6
First Quarter
Feb 14
Full
Feb 22
Last Quarter
Mar 1
New

Hourly Weather History & Observations

Time (MST) Temp. Windchill Dew Point Humidity Pressure Visibility Wind Dir Wind Speed Gust Speed Precip Events Conditions
12:15 AM 37.4 °F 31.4 °F 31.8 °F 80% 29.70 in 10.0 mi WSW 8.1 mph - N/A Snow Light Snow
12:35 AM 37.8 °F 29.8 °F 30.9 °F 76% 29.71 in 10.0 mi WSW 12.7 mph 20.7 mph N/A   Overcast
12:55 AM 37.9 °F 30.5 °F 30.4 °F 74% 29.70 in 10.0 mi WSW 11.5 mph 17.3 mph N/A   Overcast
1:15 AM 38.5 °F 29.2 °F 29.7 °F 71% 29.70 in 10.0 mi WSW 17.3 mph 23.0 mph N/A   Overcast
1:35 AM 38.3 °F 30.9 °F 29.5 °F 71% 29.71 in 10.0 mi WSW 11.5 mph - N/A   Overcast
1:55 AM 38.3 °F 30.9 °F 28.8 °F 69% 29.71 in 10.0 mi WSW 11.5 mph 20.7 mph N/A   Overcast
2:15 AM 38.3 °F 30.1 °F 28.4 °F 68% 29.71 in 10.0 mi WSW 13.8 mph 20.7 mph N/A   Overcast
2:35 AM 37.6 °F 29.1 °F 28.2 °F 69% 29.71 in 10.0 mi WSW 13.8 mph 20.7 mph N/A   Overcast
2:55 AM 37.9 °F 30.5 °F 27.5 °F 66% 29.72 in 10.0 mi WSW 11.5 mph 21.9 mph N/A   Overcast
3:15 AM 37.6 °F 30.0 °F 27.5 °F 67% 29.72 in 10.0 mi WSW 11.5 mph - N/A   Overcast
3:35 AM 37.2 °F 30.6 °F 27.5 °F 68% 29.73 in 10.0 mi WSW 9.2 mph 16.1 mph N/A   Overcast
3:55 AM 37.2 °F 28.3 °F 27.7 °F 68% 29.72 in 7.0 mi WSW 15.0 mph 20.7 mph N/A Snow Light Snow
4:15 AM 36.9 °F 29.1 °F 27.5 °F 69% 29.72 in 10.0 mi WSW 11.5 mph 21.9 mph N/A   Overcast
4:35 AM 36.5 °F 27.8 °F 27.9 °F 71% 29.73 in 10.0 mi WSW 13.8 mph 18.4 mph N/A   Overcast
4:55 AM 36.9 °F 28.7 °F 27.5 °F 69% 29.73 in 10.0 mi WSW 12.7 mph 16.1 mph N/A   Overcast
5:15 AM 36.7 °F 30.5 °F 27.3 °F 69% 29.74 in 10.0 mi SW 8.1 mph - N/A   Overcast
5:35 AM 36.5 °F 30.3 °F 27.1 °F 69% 29.74 in 10.0 mi SW 8.1 mph - N/A   Overcast
5:55 AM 36.5 °F 29.7 °F 27.1 °F 69% 29.74 in 10.0 mi SW 9.2 mph - N/A Snow Light Snow
6:15 AM 36.5 °F 30.3 °F 27.3 °F 69% 29.75 in 10.0 mi SW 8.1 mph - N/A Snow Light Snow
6:35 AM 35.6 °F 29.9 °F 28.4 °F 75% 29.74 in 7.0 mi SW 6.9 mph - N/A Snow , Thunderstorm Light Thunderstorms and Snow
6:55 AM 34.7 °F 30.6 °F 30.0 °F 83% 29.75 in 3.0 mi SSW 4.6 mph - N/A Snow Light Snow
7:15 AM 34.7 °F 30.6 °F 29.8 °F 82% 29.75 in 5.0 mi SW 4.6 mph - N/A Snow Light Snow
7:35 AM 33.8 °F - 31.5 °F 91% 29.75 in 2.0 mi Calm Calm - N/A Snow Light Snow
7:55 AM 34.7 °F 29.6 °F 29.3 °F 81% 29.75 in 5.0 mi SW 5.8 mph - N/A Snow Light Snow
8:15 AM 34.0 °F 28.8 °F 31.3 °F 90% 29.75 in 1.5 mi SW 5.8 mph - N/A Snow Light Snow
8:35 AM 33.8 °F - 32.0 °F 93% 29.74 in 4.0 mi Calm Calm - N/A Snow Light Snow
8:55 AM 33.1 °F 26.1 °F 32.0 °F 96% 29.75 in 0.8 mi SW 8.1 mph - N/A Snow Snow
9:15 AM 32.9 °F 28.5 °F 32.0 °F 96% 29.75 in 10.0 mi SW 4.6 mph - N/A   Overcast
9:35 AM 33.8 °F 28.6 °F 32.0 °F 93% 29.75 in 10.0 mi SSW 5.8 mph - N/A   Overcast
9:55 AM 35.1 °F 26.9 °F 28.6 °F 77% 29.76 in 10.0 mi SSW 11.5 mph 17.3 mph N/A   Overcast
10:15 AM 36.1 °F 27.7 °F 27.0 °F 69% 29.76 in 10.0 mi SW 12.7 mph 20.7 mph N/A   Overcast
10:35 AM 36.0 °F 29.6 °F 27.3 °F 71% 29.76 in 10.0 mi WSW 8.1 mph - N/A   Overcast
10:55 AM 35.2 °F 28.8 °F 28.0 °F 75% 29.76 in 3.0 mi WSW 8.1 mph 19.6 mph N/A Snow Light Snow
11:15 AM 35.2 °F 28.1 °F 28.8 °F 77% 29.74 in 10.0 mi SW 9.2 mph - N/A   Overcast
11:35 AM 36.5 °F 30.3 °F 27.0 °F 68% 29.72 in 10.0 mi SW 8.1 mph 17.3 mph N/A   Mostly Cloudy
11:55 AM 37.2 °F 31.9 °F 27.0 °F 66% 29.70 in 10.0 mi WSW 6.9 mph - N/A   Overcast
12:15 PM 37.2 °F 30.6 °F 27.3 °F 67% 29.68 in 7.0 mi West 9.2 mph 16.1 mph N/A Snow Light Snow
12:35 PM 37.9 °F 27.9 °F 26.1 °F 62% 29.67 in 10.0 mi WSW 19.6 mph 34.5 mph N/A   Overcast
12:55 PM 38.8 °F 30.0 °F 23.9 °F 55% 29.66 in 10.0 mi WSW 16.1 mph 32.2 mph N/A   Overcast
1:15 PM 39.9 °F 30.8 °F 23.5 °F 52% 29.64 in 10.0 mi SW 18.4 mph 28.8 mph N/A   Scattered Clouds
1:35 PM 37.2 °F 27.0 °F 27.5 °F 68% 29.65 in 7.0 mi West 19.6 mph 32.2 mph N/A   Mostly Cloudy
1:55 PM 36.9 °F 24.9 °F 26.6 °F 66% 29.65 in 10.0 mi WSW 26.5 mph 39.1 mph N/A   Overcast
2:15 PM 35.4 °F 26.4 °F 27.3 °F 72% 29.65 in 10.0 mi West 13.8 mph 19.6 mph N/A   Overcast
2:35 PM 35.4 °F 26.4 °F 27.1 °F 72% 29.66 in 4.0 mi WSW 13.8 mph 19.6 mph N/A Snow Light Snow
2:55 PM 32.5 °F 23.2 °F 31.3 °F 95% 29.67 in 0.2 mi SW 12.7 mph 23.0 mph N/A Snow Snow
3:15 PM 32.2 °F 20.7 °F 31.1 °F 96% 29.66 in 2.0 mi WSW 18.4 mph 23.0 mph N/A Snow Light Snow
3:35 PM 32.4 °F 22.1 °F 30.7 °F 94% 29.66 in 10.0 mi WSW 15.0 mph 21.9 mph N/A   Overcast
3:55 PM 32.0 °F 23.6 °F 30.7 °F 95% 29.66 in 3.0 mi WSW 10.4 mph - N/A Snow Light Snow
4:15 PM 32.0 °F 21.2 °F 31.1 °F 96% 29.65 in 0.8 mi SW 16.1 mph 21.9 mph N/A Snow Light Snow
4:35 PM 31.8 °F 22.3 °F 30.7 °F 96% 29.66 in 1.0 mi SW 12.7 mph 19.6 mph N/A Snow Light Snow
4:55 PM 31.5 °F 21.8 °F 30.6 °F 96% 29.66 in 1.0 mi SW 12.7 mph - N/A Snow Light Snow
5:15 PM 31.1 °F 20.9 °F 30.6 °F 98% 29.68 in 0.5 mi SW 13.8 mph 19.6 mph N/A Snow Snow
5:35 PM 30.9 °F 21.2 °F 30.2 °F 97% 29.68 in 0.8 mi WSW 12.7 mph 20.7 mph N/A Snow Light Snow
5:55 PM 30.9 °F 21.7 °F 30.6 °F 99% 29.69 in 2.0 mi SW 11.5 mph - N/A Snow Light Snow
6:15 PM 30.9 °F 22.2 °F 30.6 °F 99% 29.69 in 1.2 mi SSW 10.4 mph - N/A Snow Light Snow
6:35 PM 30.2 °F 20.2 °F 29.7 °F 98% 29.70 in 4.0 mi SW 12.7 mph - N/A Snow Light Snow
6:55 PM 30.2 °F 20.2 °F 29.7 °F 98% 29.70 in 2.5 mi SW 12.7 mph 16.1 mph N/A Snow Light Snow
7:15 PM 30.2 °F 22.6 °F 29.7 °F 98% 29.70 in 4.0 mi SSW 8.1 mph - N/A Snow Light Snow
7:35 PM 30.2 °F 20.8 °F 29.3 °F 96% 29.70 in 3.0 mi SW 11.5 mph 17.3 mph N/A Snow Light Snow
7:55 PM 30.4 °F 21.5 °F 28.4 °F 92% 29.71 in 10.0 mi SW 10.4 mph - N/A   Overcast
8:15 PM 30.6 °F 21.8 °F 28.0 °F 90% 29.71 in 5.0 mi SW 10.4 mph 16.1 mph N/A Snow Light Snow
8:35 PM 30.0 °F 20.0 °F 28.2 °F 93% 29.70 in 7.0 mi SW 12.7 mph 19.6 mph N/A Snow Light Snow
8:55 PM 29.7 °F 18.6 °F 28.2 °F 94% 29.71 in 10.0 mi SW 15.0 mph 21.9 mph N/A   Overcast
9:15 PM 29.3 °F 19.6 °F 27.9 °F 94% 29.71 in 7.0 mi SW 11.5 mph 16.1 mph N/A   Overcast
9:35 PM 29.3 °F 20.2 °F 28.2 °F 96% 29.71 in 5.0 mi SW 10.4 mph 20.7 mph N/A Snow Light Snow
9:55 PM 29.3 °F 19.1 °F 28.9 °F 99% 29.72 in 4.0 mi SW 12.7 mph 17.3 mph N/A Snow Light Snow
10:15 PM 29.1 °F 20.6 °F 28.2 °F 96% 29.71 in 7.0 mi SW 9.2 mph - N/A   Mostly Cloudy
10:35 PM 29.1 °F 20.6 °F 27.7 °F 94% 29.71 in 7.0 mi SW 9.2 mph - N/A   Overcast
10:55 PM 28.8 °F 23.7 °F 27.5 °F 95% 29.71 in 5.0 mi SW 4.6 mph - N/A Snow Light Snow
11:15 PM 28.8 °F - 28.0 °F 97% 29.72 in 10.0 mi Calm Calm - N/A   Overcast
11:35 PM 28.6 °F 24.8 °F 27.7 °F 96% 29.72 in 10.0 mi SSW 3.5 mph - N/A   Overcast
11:55 PM 28.4 °F - 27.3 °F 96% 29.72 in 10.0 mi Calm Calm - N/A   Overcast